Location: Kalberh�ni
(46.4610°N, 7.2453°E)
Time: 01:26:50
(UTC+00:00)

Spot 2 Rocket - Pass Details

Date: 20 June 2021
Orbit: 758 x 771 km, 98.5° (Epoch: 25 July)

Event Time Altitude Azimuth Distance (km) Brightness Sun altitude
Exits shadow 20:28:29 10° 153° (SSE) 2,310 5.4 -8.6°
Reaches altitude 10° 20:28:31 10° 153° (SSE) 2,291 5.3 -8.6°
Maximum altitude 20:33:31 65° 72° (ENE) 839 3.6 -9.2°
Drops below altitude 10° 20:38:34 10° 351° (N) 2,317 7.0 -9.8°
Sets 20:40:54 0° 349° (N) 3,250 8.0 -10.0°
